Flag for Canada Weather past 2 weeks in Kuujjuaq, Quebec, Canada

Now
27 °F

Overcast.


Feels Like: 17 °F
Forecast: 26 / 38 °F
Wind: 10 mph from Northwest

Location: Kuujjuaq

Current Time: May 28, 2015 at 6:21:31 AM

Latest Report: May 28, 2015 at 6:00 AM


Visibility: 15 mi

Pressure: 29.89 "Hg

Humidity: 80%

Dew point: 21 °F

Location of KuujjuaqLocation

Historic Weather in Kuujjuaq — Graph

°F

Kuujjuaq temperature yesterday

Maximum temperature yesterday: 37 °F (at 10:00 AM)
Minimum temperature yesterday: 21 °F (at 4:00 AM)
Average temperature yesterday: 31 °F

Past Weeks' High & Low Weather Summary

 TemperatureHumidityPressure
High68 °F (May 16, 4:00 PM)100% (May 14, 12:00 AM)30.18 "Hg (May 14, 12:00 AM)
Low21 °F (May 27, 4:00 AM)19% (May 16, 5:00 PM)29.52 "Hg (May 14, 8:00 AM)
Average36 °F63%29.83 "Hg
* Reported May 13 5:00 AM — May 28 5:00 AM, Kuujjuaq, Weather by CustomWeather, © 2015

Note: Actual official high and low records may vary slightly from our data, if they occured in-between our weather recording intervals... More about our weather records

Advertising

Kuujjuaq weather history for previous 24 hours

 ConditionsComfort  
Time TempWeatherWind HumidityBarometerVisibility
5:00 AM
Thu, May 28
27 °FMostly cloudy.12 mph80%29.86 "Hg15 mi
4:00 AM27 °FPassing clouds.7 mph80%29.83 "Hg15 mi
3:00 AM27 °FPartly cloudy.8 mph86%29.81 "Hg15 mi
2:00 AM28 °FLight snow. Partly cloudy.10 mph80%29.79 "Hg15 mi
1:00 AM28 °FLight snow. Passing clouds.13 mph80%29.77 "Hg15 mi
12:00 AM30 °FPassing clouds.14 mph80%29.76 "Hg15 mi
11:00 PM
Wed, May 27
30 °FLight snow. Overcast.14 mph80%29.76 "Hg15 mi
10:00 PM30 °FOvercast.13 mph80%29.75 "Hg15 mi
9:00 PM32 °FMostly cloudy.12 mph80%29.75 "Hg15 mi
8:00 PM32 °FMostly cloudy.12 mph87%29.75 "Hg15 mi
7:00 PM34 °FMostly cloudy.13 mph81%29.75 "Hg15 mi
6:00 PM34 °FLow clouds.13 mph87%29.77 "Hg15 mi
5:00 PM34 °FLight snow. More clouds than sun.16 mph93%29.78 "Hg6 mi
4:00 PM34 °FLight snow. Mostly cloudy.13 mph93%29.80 "Hg1 mi
3:00 PM34 °FLight snow. Dense fog.13 mph93%29.83 "Hg1 mi
2:00 PM34 °FLight snow. Dense fog.12 mph93%29.84 "Hg1 mi
1:00 PM32 °FLight snow. Dense fog.8 mph93%29.86 "Hg1 mi
12:48 PM32 °FLight snow. Dense fog.8 mph93%29.88 "Hg1 mi
12:00 PM32 °FLight snow. Fog.7 mph93%29.90 "Hg2 mi
11:00 AM34 °FLight snow. Overcast.8 mph75%29.92 "Hg4 mi
10:53 AM34 °FLight snow. Broken clouds.10 mph75%29.92 "Hg6 mi
10:00 AM37 °FPartly sunny.12 mph48%29.94 "Hg15 mi
9:00 AM36 °FPartly sunny.7 mph52%29.98 "Hg15 mi
8:00 AM34 °FPartly sunny.3 mph60%30.01 "Hg15 mi
7:00 AM30 °FPartly sunny.2 mph69%30.01 "Hg15 mi
6:00 AM28 °FBroken clouds.2 mph74%30.02 "Hg15 mi
Weather by CustomWeather, © 2015

See weather overviewHow to use our weather pages